User: anonymous   Login
Location: Unspecified
(0.0000°N, 0.0000°E)
Time: 15:25:21
(UTC+00:00)
Language:

EUCROPIS - Orbit

View from above orbital plane
View from above orbital plane
View from above satellite
View from above satellite

Ground track
Ground track

The orbit data is extracted from the following two-line orbital elements,

1 43807U 18099BB  21174.76247570  .00000256  00000-0  27895-4 0  9990
2 43807  97.6668 245.6812 0013596  32.5421 327.6636 14.95933372138859
Epoch (UTC): 23 June 2021 18:17:57
Eccentricity: 0.0013596
inclination: 97.6668°
perigee height: 570 km
apogee height: 589 km
right ascension of ascending node: 245.6812°
argument of perigee: 32.5421°
revolutions per day: 14.95933372
mean anomaly at epoch: 327.6636°
orbit number at epoch: 13885

The dashed part of the orbit path shows where the satellite is in the earth's shadow,  

DLR